SKYNET 5A

Last updated on Tue Sep 16 2025 00:02:46 GMT+0000 (Coordinated Universal Time)

1 30794U 07007B 25258.59712566 -.00000287 00000+0 00000+0 0 9996 2 30794 4.5964 77.0618 0003496 109.5014 118.4077 1.00268230 67940
UTC large
Height (km)
Speed (km/s)
/
Latitude / Longitude
Inclination (degrees)
Orbital Period (minutes)
Azimuth
Elevation
Range (km)
Doppler Factor

Next 0 passes for location: London (51.5072 / 0.1276)

Sorry there are no passes over London.